Weather History for Immokalee Regional Airport [I, FL

Change the Weather History Date:

Monday, December 9, 2013

  Actual Average (KFMY) Record (KFMY)
Temperature  
Mean Temperature 76 °F 68 °F  
Max Temperature 87 °F 78 °F 87 °F (1986)
Min Temperature 64 °F 58 °F 42 °F (1959)
Degree Days  
Heating Degree Days 0 2  
Month to date heating degree days 13  
Since 1 July heating degree days 31  
Cooling Degree Days 10 4  
Month to date cooling degree days 43  
Year to date cooling degree days 3906  
Growing Degree Days 26 (Base 50)    
Moisture  
Dew Point 67 °F    
Average Humidity 71    
Maximum Humidity 100    
Minimum Humidity 37    
Precipitation  
Precipitation 0.00 in 0.05 in 1.34 in (1977)
Month to date precipitation 0.42  
Year to date precipitation 54.64  
Sea Level Pressure  
Sea Level Pressure 30.16 in    
Wind  
Wind Speed 4 mph (SE)    
Max Wind Speed 16 mph    
Max Gust Speed 22 mph    
Visibility 10 miles    
Events      
T = Trace of Precipitation, MM = Missing Value Source: NWS Daily Summary

Daily Weather History Graph

Daily Weather History Graph

Search for Another Location

Airport:

Trip Planner

Search our weather history database for the weather conditions in past years. The results will help you decide how hot, cold, wet, or windy it might be!

Date:

Astronomy

Dec. 09, 2013 Rise Set
Actual Time 7:02 AM EST 5:33 PM EST
Civil Twilight 6:37 AM EST 5:59 PM EST
Nautical Twilight 6:08 AM EST 6:27 PM EST
Astronomical Twilight 5:40 AM EST 6:56 PM EST
Moon 12:27 PM EST (12/9) No Moon Set
Length of Visible Light 11h 22m
Length of Day
10h 31m
Waxing Crescent, 51% of the Moon is Illuminated
Dec 9
Waxing Crescent
Dec 17
Full
Dec 25
Last Quarter
Jan 1
New
Jan 7
First Quarter

Hourly Weather History & Observations

Time (EST) Temp. Heat Index Dew Point Humidity Pressure Visibility Wind Dir Wind Speed Gust Speed Precip Events Conditions
12:15 AM 64.4 °F - - N/A% 30.17 in 10.0 mi Calm Calm - 0.00 in   Clear
12:35 AM 64.4 °F - - N/A% 30.16 in 10.0 mi Calm Calm - 0.00 in   Clear
12:55 AM 64.4 °F - - N/A% 30.16 in 10.0 mi Calm Calm - 0.00 in   Clear
1:15 AM 64.4 °F - - N/A% 30.16 in 10.0 mi Calm Calm - 0.00 in   Clear
1:35 AM 64.4 °F - - N/A% 30.16 in 10.0 mi Calm Calm - 0.00 in   Partly Cloudy
1:55 AM 64.4 °F - - N/A% 30.16 in 8.0 mi Calm Calm - 0.00 in   Clear
2:15 AM 64.4 °F - - N/A% 30.16 in 10.0 mi Calm Calm - 0.00 in   Scattered Clouds
2:35 AM 66.2 °F - - N/A% 30.16 in 10.0 mi Calm Calm - 0.00 in   Overcast
2:55 AM 66.2 °F - - N/A% 30.16 in 10.0 mi Calm Calm - 0.00 in   Mostly Cloudy
3:15 AM 66.2 °F - - N/A% 30.16 in 10.0 mi Calm Calm - 0.00 in   Mostly Cloudy
3:35 AM 68.0 °F - - N/A% 30.16 in 9.0 mi Calm Calm - 0.00 in   Mostly Cloudy
3:55 AM 66.2 °F - - N/A% 30.16 in 5.0 mi Calm Calm - 0.00 in   Overcast
4:15 AM 66.2 °F - - N/A% 30.16 in 5.0 mi Calm Calm - 0.00 in   Mostly Cloudy
4:35 AM 66.2 °F - - N/A% 30.16 in 10.0 mi Calm Calm - 0.00 in   Mostly Cloudy
4:55 AM 66.2 °F - - N/A% 30.16 in 10.0 mi Calm Calm - 0.00 in   Mostly Cloudy
5:15 AM 66.2 °F - - N/A% 30.16 in 10.0 mi Calm Calm - 0.00 in   Mostly Cloudy
5:35 AM 66.2 °F - - N/A% 30.16 in 7.0 mi Calm Calm - 0.00 in   Mostly Cloudy
5:55 AM 66.2 °F - - N/A% 30.16 in 7.0 mi Calm Calm - 0.00 in   Mostly Cloudy
6:15 AM 66.2 °F - - N/A% 30.17 in 6.0 mi Calm Calm - 0.00 in   Overcast
6:35 AM 66.2 °F - - N/A% 30.17 in 8.0 mi Calm Calm - 0.00 in   Overcast
6:55 AM 68.0 °F - - N/A% 30.18 in 5.0 mi Calm Calm - 0.00 in   Overcast
7:15 AM 68.0 °F - - N/A% 30.18 in 7.0 mi Calm Calm - 0.00 in   Overcast
7:35 AM 69.8 °F - - N/A% 30.18 in 7.0 mi Calm Calm - 0.00 in   Overcast
7:55 AM 69.8 °F - - N/A% 30.19 in 9.0 mi Calm Calm - 0.00 in   Overcast
8:15 AM 71.6 °F - - N/A% 30.19 in 10.0 mi Calm Calm - 0.00 in   Overcast
8:35 AM 73.4 °F - - N/A% 30.19 in 10.0 mi SE 5.8 mph - 0.00 in   Mostly Cloudy
8:55 AM 77.0 °F - 77.0 °F 100% 30.20 in 10.0 mi SE 9.2 mph - 0.00 in   Scattered Clouds
9:15 AM 78.8 °F - 78.8 °F 100% 30.20 in 10.0 mi ESE 9.2 mph - 0.00 in   Clear
9:35 AM 80.6 °F 87.1 °F 77.0 °F 89% 30.20 in 10.0 mi SE 10.4 mph - 0.00 in   Clear
9:55 AM 82.4 °F 89.5 °F 75.2 °F 79% 30.20 in 10.0 mi SSE 13.8 mph 19.6 mph 0.00 in   Clear
10:15 AM 82.4 °F 88.2 °F 73.4 °F 74% 30.20 in 10.0 mi SSE 16.1 mph 21.9 mph 0.00 in   Partly Cloudy
10:35 AM 84.2 °F 89.6 °F 71.6 °F 66% 30.20 in 10.0 mi SE 15.0 mph - 0.00 in   Clear
10:55 AM 84.2 °F 89.6 °F 71.6 °F 66% 30.20 in 10.0 mi SSE 13.8 mph - 0.00 in   Clear
11:15 AM 86.0 °F 90.4 °F 69.8 °F 58% 30.19 in 10.0 mi SSE 11.5 mph - 0.00 in   Clear
11:35 AM 86.0 °F 89.4 °F 68.0 °F 55% 30.18 in 10.0 mi SE 11.5 mph 16.1 mph 0.00 in   Clear
11:55 AM 84.2 °F 86.6 °F 66.2 °F 55% 30.17 in 10.0 mi SE 12.7 mph - 0.00 in   Scattered Clouds
12:15 PM 86.0 °F 88.2 °F 66.2 °F 51% 30.17 in 10.0 mi SE 12.7 mph - 0.00 in   Partly Cloudy
12:35 PM 87.8 °F 90.4 °F 66.2 °F 49% 30.16 in 10.0 mi SE 10.4 mph - 0.00 in   Partly Cloudy
12:55 PM 87.8 °F 89.4 °F 64.4 °F 46% 30.14 in 10.0 mi SE 9.2 mph - 0.00 in   Partly Cloudy
1:15 PM 87.8 °F 89.4 °F 64.4 °F 46% 30.13 in 10.0 mi SSE 10.4 mph 19.6 mph 0.00 in   Clear
1:35 PM 87.8 °F 89.4 °F 64.4 °F 46% 30.13 in 10.0 mi ESE 8.1 mph - 0.00 in   Partly Cloudy
1:55 PM 87.8 °F 88.5 °F 62.6 °F 43% 30.12 in 10.0 mi ESE 8.1 mph - 0.00 in   Partly Cloudy
2:15 PM 87.8 °F 88.5 °F 62.6 °F 43% 30.12 in 10.0 mi SE 11.5 mph - 0.00 in   Clear
2:35 PM 84.2 °F 85.0 °F 62.6 °F 48% 30.12 in 10.0 mi SE 9.2 mph - 0.00 in   Clear
2:55 PM 84.2 °F 85.0 °F 62.6 °F 48% 30.11 in 10.0 mi ESE 8.1 mph - 0.00 in   Clear
3:15 PM 87.8 °F 88.5 °F 62.6 °F 43% 30.11 in 10.0 mi ESE 9.2 mph - 0.00 in   Partly Cloudy
3:35 PM 87.8 °F 87.6 °F 60.8 °F 40% 30.11 in 10.0 mi SE 9.2 mph - 0.00 in   Partly Cloudy
3:55 PM 86.0 °F 85.4 °F 59.0 °F 40% 30.11 in 10.0 mi SE 9.2 mph - 0.00 in   Clear
4:15 PM 86.0 °F 84.9 °F 57.2 °F 37% 30.11 in 10.0 mi SE 8.1 mph - 0.00 in   Clear
4:35 PM 84.2 °F 84.4 °F 60.8 °F 45% 30.11 in 10.0 mi SE 8.1 mph - 0.00 in   Clear
4:55 PM 82.4 °F 82.9 °F 60.8 °F 48% 30.12 in 10.0 mi ESE 5.8 mph - 0.00 in   Clear
5:15 PM 80.6 °F 81.8 °F 62.6 °F 54% 30.12 in 10.0 mi ESE 4.6 mph - 0.00 in   Scattered Clouds
5:35 PM 77.0 °F - 62.6 °F 61% 30.12 in 10.0 mi ESE 4.6 mph - 0.00 in   Partly Cloudy
5:55 PM 75.2 °F - 64.4 °F 69% 30.12 in 10.0 mi Calm Calm - 0.00 in   Mostly Cloudy
6:15 PM 75.2 °F - 64.4 °F 69% 30.13 in 10.0 mi Calm Calm - 0.00 in   Mostly Cloudy
6:35 PM 73.4 °F - 64.4 °F 73% 30.14 in 10.0 mi ESE 5.8 mph - 0.00 in   Partly Cloudy
6:55 PM 73.4 °F - 66.2 °F 78% 30.15 in 10.0 mi ESE 4.6 mph - 0.00 in   Clear
7:15 PM 71.6 °F - 66.2 °F 83% 30.15 in 10.0 mi ESE 5.8 mph - 0.00 in   Clear
7:35 PM 71.6 °F - 66.2 °F 83% 30.15 in 10.0 mi SE 8.1 mph - 0.00 in   Clear
7:55 PM 71.6 °F - 68.0 °F 88% 30.15 in 10.0 mi SE 8.1 mph - 0.00 in   Clear
8:15 PM 69.8 °F - 68.0 °F 94% 30.16 in 10.0 mi SE 8.1 mph - 0.00 in   Clear
8:35 PM 69.8 °F - 68.0 °F 94% 30.16 in 10.0 mi SE 8.1 mph - 0.00 in   Clear
8:55 PM 71.6 °F - 69.8 °F 94% 30.17 in 10.0 mi SE 8.1 mph - 0.00 in   Clear
9:15 PM 69.8 °F - 69.8 °F 100% 30.17 in 10.0 mi SE 9.2 mph - 0.00 in   Clear
9:35 PM 69.8 °F - 69.8 °F 100% 30.17 in 10.0 mi SE 9.2 mph - 0.00 in   Clear
9:55 PM 69.8 °F - 69.8 °F 100% 30.17 in 10.0 mi SE 5.8 mph - 0.00 in   Clear
10:15 PM 69.8 °F - 69.8 °F 100% 30.17 in 10.0 mi SE 6.9 mph - 0.00 in   Clear
10:35 PM 68.0 °F - 68.0 °F 100% 30.17 in 10.0 mi SE 6.9 mph - 0.00 in   Clear
10:55 PM 68.0 °F - 68.0 °F 100% 30.16 in 10.0 mi SE 5.8 mph - 0.00 in   Clear
11:15 PM 68.0 °F - 68.0 °F 100% 30.16 in 10.0 mi SE 4.6 mph - 0.00 in   Clear
11:35 PM 66.2 °F - 66.2 °F 100% 30.16 in 10.0 mi SE 5.8 mph - 0.00 in   Clear
11:55 PM 66.2 °F - 66.2 °F 100% 30.15 in 10.0 mi Calm Calm - 0.00 in   Clear